Location: Unspecified
(0.0000°N, 0.0000°E)
Time: 23:35:28
(UTC+00:00)

OFEQ 7 - Pass Details

Date: 15 June 2023
Orbit: 475 x 482 km, 141.7° (Epoch: 03 October)

Event Time Altitude Azimuth Distance (km) Brightness Sun altitude
Exits shadow 18:31:36 - 68° (ENE) 2,420 8.2 -7.1°
Reaches altitude 10° 18:33:30 10° 77° (ENE) 1,612 7.2 -7.6°
Maximum altitude 18:36:35 35° 144° (SE) 763 5.6 -8.3°
Drops below altitude 10° 18:39:40 10° 212° (SSW) 1,626 7.8 -9.0°
Sets 18:41:45 0° 221° (SW) 2,506 8.9 -9.5°
